Starlink 36143

operational
NORAD ID: 67056 Int'l Des: 2025-294 Owner: SPXS Country: US Constellation: starlink
LEOCIRCULAR

Starlink 36143について

説明を読み込み中...

リアルタイム位置

3D地球を読み込み中...

次回通過

高度履歴

Altitude vs Time

uPlot chart will show altitude changes over time

軌道要素

1 67056C 25294AC 25346.87409722 .01028600 00000+0 14746-2 0 3461
2 67056 43.0029 182.5178 0009345 279.7652 322.6385 16.03351793 13
Epoch: Dec 12, 2025 • Age: 59 hours

現在のステータス

高度 253.8 km
速度 7.76 km/s
衛星直下点 1.53°N, 71.4°W
打ち上げ日 Dec 11, 2025
運用期間 2 days
タイプ internet

技術仕様

分類 Payload
質量 575.00 kg
乾燥質量 530.00 kg
総質量 575.00 kg
長さ 0.30 m
直径 4.10 m
スパン 29.00 m
形状 Box + pan
製造者 SPXS
バスタイプ Starlink V2MO
フェーズステータス In Orbit
所有者/国 SPXS/US

大規模コンステレーション

Loading constellations...